[[{"header":{"parameterUnit":"m.s-1","parameterCategory":1,"la1":30.2992,"la2":30.254,"lo1":-89.0895,"lo2":-89.0443,"dy":0.0025,"dx":0.0025,"nx":19,"ny":19,"refTime":"2026-03-29T21:00:00:Z","depth":0,"parameterNumber":2,"parameterNumberName":"U-component_of_WINDS"},"data":[0,0,0,-4.5919,-4.5922,-4.6074,-4.6075,-4.6272,-4.6274,0,0,0,0,0,0,0,0,0,0,0,-4.5875,-4.5877,-4.5918,-4.5922,-4.6074,-4.6075,-4.6272,-4.6274,0,0,0,0,0,0,0,0,0,0,0,-4.5875,-4.5876,-4.5878,-4.5923,-4.6074,-4.6075,-4.6271,-4.6155,0,0,0,0,0,0,0,0,0,0,-4.6007,-4.5969,-4.5876,-4.5878,-4.5924,-4.6074,-4.6075,-4.615,-4.6163,-4.6204,0,-4.6242,0,-4.6261,-4.6287,-4.6288,0,0,0,-4.592,-4.5958,-4.5998,-4.5878,-4.5925,-4.6074,-4.6005,-4.6157,-4.6171,-4.6221,-4.6245,-4.6252,-4.6265,-4.6288,-4.6289,-4.6536,-4.6537,0,0,-4.5912,-4.5904,-4.5988,-4.6007,-4.5985,-4.6,-4.601,-4.6166,-4.6191,-4.6246,-4.6257,-4.6268,-4.629,-4.6291,-4.6535,-4.6536,0,0,0,-4.5889,-4.5898,-4.5933,-4.5999,-4.6027,-4.6005,-4.6016,-4.6184,-4.6196,-4.6259,-4.627,-4.6291,-4.6293,-4.6534,-4.6536,-4.6587,0,0,0,-4.5884,-4.5884,-4.593,-4.5926,-4.6024,-4.6107,-4.6031,-4.6185,-4.6203,-4.6269,-4.6291,-4.6295,-4.6532,-4.6535,-4.6583,-4.6612,0,0,0,-4.5865,-4.5882,-4.5905,-4.5925,-4.5991,-4.6105,-4.6126,-4.6189,-4.621,-4.6288,-4.6296,-4.6531,-4.6534,-4.6579,-4.6606,-4.6673,0,0,0,-4.5842,-4.5949,-4.5906,-4.603,-4.599,-4.6137,-4.6125,-4.6235,-4.6309,-4.6292,-4.6533,-4.6535,-4.6578,-4.6602,-4.6669,-4.6726,-4.675,0,0,-4.5972,-4.5964,-4.6038,-4.6004,-4.6157,-4.6114,-4.6274,-4.6349,-4.6364,-4.6478,-4.6484,-4.6584,-4.6605,-4.6672,-4.6891,-4.691,0,0,0,-4.6077,-4.6129,-4.6172,-4.6241,-4.6302,-4.6355,-4.6407,-4.6434,-4.6531,-4.6421,-4.6628,-4.6641,-4.668,-4.6708,-4.6724,-4.6757,-4.6549,-4.6548,-4.6548,-4.6248,-4.6262,-4.6385,-4.6417,-4.6485,-4.6537,-4.6593,-4.6639,-4.6634,-4.6682,-4.6715,-4.6846,-4.6879,-4.6891,-4.6925,-4.6749,-4.6749,-4.6749,-4.6749,-4.6438,-4.6514,-4.6505,-4.662,-4.6635,-4.6732,-4.6787,-4.678,-4.6871,-4.6823,-4.6858,-4.6801,-4.6911,-4.6942,-4.6753,-4.6753,-4.6752,-4.6752,-4.6752,-4.655,-4.6588,-4.6621,-4.6723,-4.68,-4.683,-4.6918,-4.6929,-4.6939,-4.6974,-4.7009,-4.7008,-4.7006,-4.6991,-4.6991,-4.6992,-4.6992,-4.6992,-4.6993,-4.6651,-4.6686,-4.676,-4.6833,-4.6879,-4.6941,-4.6995,-4.704,-4.7093,-4.7093,-4.7094,-4.7082,-4.692,-4.6877,-4.7,-4.6998,-4.6997,-4.6997,-4.6996,-4.6834,-4.6795,-4.6908,-4.6954,-4.704,-4.7115,-4.7129,-4.722,-4.7259,-4.7302,-4.7284,-4.7164,-4.7156,-4.7143,-4.7107,-4.7282,-4.7282,-4.7282,-4.7282,-4.6926,-4.6924,-4.7041,-4.7114,-4.7187,-4.721,-4.7336,-4.738,-4.7419,-4.7444,-4.7421,-4.7376,-4.7363,-4.7363,-4.7345,-4.7312,-4.7535,-4.7535,-4.7535,-4.7038,-4.7044,-4.7149,-4.7187,-4.7256,-4.7315,-4.7433,-4.7517,-4.7553,-4.7546,-4.7463,-4.7452,-4.738,-4.7356,-4.7344,-4.7316,-4.7256,0,0]},{"header":{"parameterUnit":"m.s-1","parameterCategory":1,"la1":30.2992,"la2":30.254,"lo1":-89.0895,"lo2":-89.0443,"dy":0.0025,"dx":0.0025,"nx":19,"ny":19,"refTime":"2026-03-29T21:00:00:Z","depth":0,"parameterNumber":3,"parameterNumberName":"V-component_of_WINDS"},"data":[0,0,0,3.2683,3.2685,3.2765,3.2765,3.2868,3.2869,0,0,0,0,0,0,0,0,0,0,0,3.266,3.2661,3.2683,3.2685,3.2765,3.2765,3.2868,3.2869,0,0,0,0,0,0,0,0,0,0,0,3.266,3.2661,3.2662,3.2685,3.2765,3.2765,3.2868,3.2807,0,0,0,0,0,0,0,0,0,0,3.2728,3.2709,3.2661,3.2662,3.2686,3.2765,3.2765,3.2804,3.281,3.2832,0,3.2853,0,3.2863,3.2876,3.2876,0,0,0,3.2683,3.2703,3.2724,3.2662,3.2686,3.2765,3.2728,3.2807,3.2815,3.2841,3.2854,3.2858,3.2864,3.2877,3.2877,3.3011,3.3011,0,0,3.2679,3.2675,3.2719,3.2729,3.2719,3.2726,3.2731,3.2812,3.2825,3.2854,3.286,3.2866,3.2877,3.2878,3.301,3.3011,0,0,0,3.2667,3.2672,3.2691,3.2725,3.274,3.2728,3.2734,3.2822,3.2828,3.2861,3.2867,3.2878,3.2879,3.3009,3.301,3.3041,0,0,0,3.2664,3.2665,3.2689,3.2687,3.2738,3.2782,3.2742,3.2823,3.2832,3.2867,3.2878,3.288,3.3008,3.301,3.3039,3.3056,0,0,0,3.2654,3.2664,3.2676,3.2687,3.2721,3.2781,3.2792,3.2825,3.2836,3.2876,3.288,3.3008,3.3009,3.3037,3.3053,3.3091,0,0,0,3.2642,3.2701,3.2676,3.2744,3.2721,3.28,3.2792,3.2851,3.2889,3.2878,3.3009,3.301,3.3036,3.305,3.3089,3.3122,3.3136,0,0,3.2714,3.2709,3.2749,3.273,3.2813,3.2788,3.2876,3.2913,3.292,3.298,3.2983,3.304,3.3052,3.309,3.3216,3.3227,0,0,0,3.2771,3.28,3.2823,3.286,3.2892,3.2921,3.2947,3.2961,3.3013,3.295,3.3064,3.3072,3.3094,3.311,3.312,3.314,3.3018,3.3017,3.3017,3.2865,3.2873,3.294,3.2958,3.2994,3.3022,3.3052,3.3075,3.307,3.3097,3.3115,3.319,3.3209,3.3216,3.3237,3.3133,3.3133,3.3134,3.3134,3.297,3.3013,3.3008,3.3071,3.3079,3.3132,3.316,3.3156,3.3205,3.3177,3.3197,3.3165,3.3228,3.3246,3.3136,3.3136,3.3135,3.3135,3.3135,3.3033,3.3054,3.3073,3.313,3.3172,3.3188,3.3237,3.3241,3.3245,3.3266,3.3285,3.3284,3.3285,3.3275,3.3275,3.3275,3.3275,3.3276,3.3276,3.309,3.311,3.3151,3.3192,3.3218,3.3253,3.3282,3.3307,3.3336,3.3335,3.3335,3.3328,3.3233,3.3209,3.328,3.3279,3.3279,3.3278,3.3278,3.3194,3.3172,3.3236,3.3262,3.3312,3.3354,3.336,3.3411,3.3433,3.3457,3.3446,3.3375,3.337,3.3363,3.3343,3.3444,3.3444,3.3444,3.3444,3.3246,3.3245,3.3313,3.3355,3.3396,3.3409,3.3481,3.3505,3.3526,3.354,3.3526,3.35,3.3492,3.3492,3.3482,3.3463,3.3593,3.3593,3.3593,3.3311,3.3314,3.3375,3.3397,3.3437,3.347,3.3539,3.3586,3.3605,3.3599,3.3551,3.3544,3.3503,3.3489,3.3481,3.3465,3.3431,0,0]}]]